COSMOS 2251 DEB, 34685

Orbit data source: Space-Track

COSMOS 2251 DEB, 34685 is space debris in LEO originally from a launch on Wed, 16 Jun 1993 UTC launched from the Plesetsk Missile And Space Complex (PKMTR). The debris from Iridium 33, an American commercial communications satellite, has been tracked extensively since its accidental collision with the defunct Russian satellite Cosmos 2251 in 2009. This event, occurring at high speed in low Earth orbit (LEO), generated thousands of pieces of space debris, significantly increasing the risk of further collisions. The Iridium 33 debris cloud has impacted space traffic management and orbital debris mitigation strategies, making it a subject of ongoing study in space situational awareness.

Loading next visibility...
Identifier
34685, 1993-036YF
Orbit
LEO
Country
Flag of CISCIS
Related business
Manufacturer
Unknown
Mission
Spacecraft
Bus & Motor
Unknown
Mass
Unknown
Launch date (UTC)
1993-06-16 (33 years ago)
Launch vehicle
Unknown
Launch site
Plesetsk Missile And Space Complex (PKMTR)
Object type
Payload
Rocket body
Debris
Shape & HBR
Unknown shape, 0.1 m
Radar Cross Section
Small (<0.1 m²)

Expand to show TLE details & history
Last TLE update: 7 hours ago

TLE from 7 hours ago
0 COSMOS 2251 DEB
1 34685U 93036YF  26120.41722977  .00003624  00000-0  78026-3 0  9998
2 34685  74.0293 244.8090 0014079 314.2976 113.6920 14.58784318905536
Epoch: 2026-04-30T10:00Z
TLE epoch observation values (Epoch: 2026-04-30T10:00:48.652Z)
Latitude
63.26071°
Longitude
-89.3549°
Altitude
711.639 km
Speed
7.504 km/s
True Right ascension
18h 36m 50s
True Declination
63° 07' 17"
Sunlit
Object was in daylight at epoch
Visualization orbit readout
Latitude
Unknown
Longitude
Unknown
Altitude
Unknown
Speed
Unknown
Apparent Right ascension
Unknown
Apparent Declination
Unknown
Sunlit
N/A
Visualization observer readout
Local Sidereal Time
00:19:19
Azimuth
Unknown
Elevation
Unknown
Doppler factor
Unknown
Orbital elements
Apogee altitude
704.659 km
Perigee altitude
684.744 km
Semi-major axis
7,072.838 km
Eccentricity
0.00141
Inclination
74.0293°
RAAN
244.809°
Arg. of periapsis
314.2976°
True anomaly
113.83963°
Mean anomaly
113.692°
Eccentric anomaly
113.76583°
Mean motion
3.64882 °/min
Orbital period
98.66 mins
BSTAR
0.00078026

Documentation

Showing up to 5 results
|